www.pogodaiklimat.ru

Погода и климат >> Архив погоды >> Тонга >> Аэропорт Вавау


ПОГОДА в Аэропорту Вавау

  • Прогноз погоды в Аэропорту Вавау
  • Монитор погоды в Аэропорту Вавау

АРХИВ ПОГОДЫ в Аэропорту Вавау

Время (UTC), дата Ветер
(напр.,м/с)
 
Видим.   Явления Облачность Т
(С)
Тd
(С)
f
(%)
Тe
(С)
Тes
(С)
Комфортность P
(гПа)
Po
(гПа)
Тmin
(С)
Tmax
(С)
R
(мм)
R24
(мм)
S
(см)
18 13.09 В 5 20 км 3/1 540 м
[Cu hum Ac trans Ci fib]
+23.7 +21.1 85 +30 +30 очень
душно
1015.9 1007.6
21 13.09 В 4 20 км 4/3 500 м
[Cu hum Ac und]
+26.8 +23.0 80 +36 +41 очень
душно
1017.4 1009.2
00 14.09 СВ 2 20 км {ливн. осадки} 6/4 500 м
[Cu hum Ac trans]
+28.1 +23.8 78 +39 +48 очень
душно
1015.4 1007.3 +23.4 0.1 5
03 14.09 В 3 20 км 6/4 500 м
[Cu med, cong Ac trans]
+27.4 +23.7 80 +37 +41 очень
душно
1014.6 1006.4
06 14.09 В 2 20 км 8/5 270 м
[Frnb Ac trans]
+26.0 +23.2 85 +35 +35 очень
душно
1015.4 1007.2
12 14.09 В 3 20 км {дождь, ливн. осадки} 9/5 240 м
[Frnb Ac As]
+25.1 +23.7 92 +34 +34 очень
душно
1016.8 1008.6 +28.6 2
15 14.09 В 3 20 км слаб. ливневой дождь 9/5 240 м
[Frnb Ac As]
+25.2 +23.2 89 +34 +34 очень
душно
1015.5 1007.3
18 14.09 В 3 20 км {ливн. осадки} 8/5 240 м
[Frnb Ac trans]
+25.5 +23.5 89 +35 +35 очень
душно
1016.3 1008.1 0.2
21 14.09 В 4 20 км 8/5 270 м
[Frnb Cs]
+27.3 +24.0 82 +38 +42 очень
душно
1018.1 1009.9
00 15.09 В 5 20 км 6/3 500 м
[Cu hum Ci fib]
+28.0 +23.8 78 +39 +45 очень
душно
1016.5 1008.3 +23.5 2
03 15.09 В 5 20 км 6/5 500 м
[Cu med, cong Ci fib]
+28.0 +24.0 79 +39 +41 очень
душно
1014.5 1006.4
06 15.09 СВ 5 20 км 8/8 270 м
[Frnb Ci fib]
+25.9 +22.7 83 +34 +34 очень
душно
1014.9 1006.7
12 15.09 С 4 20 км {ливн. осадки} 4/4 480 м
[Cu med, cong Ci fib]
+25.8 +23.9 89 +35 +35 очень
душно
1015.8 1007.6 +28.9 0.0
15 15.09 СВ 5 20 км 1/1 480 м
[Cu hum Ci fib]
+24.3 +21.5 84 +31 +31 очень
душно
1013.7 1005.5
18 15.09 СВ 3 20 км 1/1 480 м
[Cu hum Ci fib]
+25.1 +24.2 95 +35 +35 очень
душно
1014.2 1006.0
21 15.09 С 4 20 км 4/4 500 м
[Cu hum Ci fib]
+27.3 +24.9 87 +39 +44 очень
душно
1016.3 1008.1
00 16.09 СЗ 5 20 км 4/3 600 м
[Cu hum Ci fib]
+28.7 +25.6 83 +42 +50 опасность
перегрева
1015.5 1007.4 +24.8
03 16.09 СЗ 5 20 км 5/5 300 м
[Cu Sc Ci fib]
+28.5 +25.1 82 +41 +44 опасность
перегрева
1014.2 1006.1
06 16.09 нст 1 20 км 5/5 500 м
[Cu Sc Ci fib]
+26.2 +24.0 88 +36 +36 очень
душно
1015.6 1007.4
12 16.09 штиль 0 20 км {ливн. осадки} 9/9 500 м
[Cu Sc]
+23.8 +22.9 95 +32 +32 очень
душно
1016.8 1008.5 +29.0 0.2
15 16.09 штиль 0 20 км 9/9 500 м
[Cu Sc]
+23.6 +22.7 95 +31 +31 очень
душно
1015.1 1006.8
18 16.09 Ю 3 20 км в посл. час ливневой дождь 9/9 240 м
[Cu Sc]
+22.8 +21.6 93 +30 +30 очень
душно
1015.9 1007.6 0.8
21 16.09 Ю 4 20 км в посл. час ливневой дождь 9/5 240 м
[Frnb As trans]
+23.3 +22.0 92 +32 +34 очень
душно
1017.9 1009.6
00 17.09 Ю 5 20 км в посл. час ливневой дождь 9/6 240 м
[Cu Sc As trans]
+24.0 +21.6 86 +31 +33 очень
душно
1017.2 1008.9 +22.5 0.4 1
03 17.09 Ю 5 20 км 8/8 500 м
[Cu Sc]
+24.7 +18.8 70 +30 +30 очень
душно
1016.4 1008.2
06 17.09 Ю 5 20 км 8/6 500 м
[Cu Sc Ci fib]
+23.3 +17.6 70 +29 +29 душно 1017.8 1009.5
12 17.09 В 3 20 км 4/4 500 м
[Cu Sc]
+22.6 +17.3 72 +27 +27 душно 1018.9 1010.6 +25.0
15 17.09 В 5 20 км 3/3 500 м
[Cu hum]
+22.2 +16.5 70 +26 +26 душно 1017.2 1008.9
18 17.09 ЮВ 3 20 км 3/3 500 м
[Cu hum Ci fib]
+22.2 +16.7 71 +27 +27 душно 1017.9 1009.6
21 17.09 В 2 20 км 4/4 500 м
[Cu hum]
+24.7 +15.3 56 +28 +35 душно 1019.2 1010.9
00 18.09 В 3 20 км 4/4 500 м
[Cu hum]
+25.6 +17.4 61 +30 +40 душно 1017.5 1009.3 +21.5
03 18.09 В 2 20 км 5/5 500 м
[Cu hum]
+25.0 +16.3 58 +28 +32 жарко 1016.3 1008.1
06 18.09 В 2 20 км 5/5 500 м
[Cu hum]
+23.5 +15.8 62 +27 +27 душно 1016.7 1008.4
12 18.09 В 2 20 км 6/4 500 м
[Cu hum Ac trans]
+23.1 +15.7 63 +27 +27 душно 1017.6 1009.3 +26.4
15 18.09 В 2 20 км 8/3 500 м
[Cu hum Ac trans]
+22.5 +15.6 65 +26 +26 жарко 1016.4 1008.1
18 18.09 ЮВ 2 20 км 6/3 500 м
[Cu hum Ac trans]
+22.4 +15.3 64 +26 +26 жарко 1017.5 1009.2
21 18.09 ЮВ 4 20 км 8/3 500 м
[Cu hum Ac trans]
+24.5 +16.0 59 +28 +31 душно 1018.3 1010.0
00 19.09 В 4 20 км 4/1 500 м
[Cu hum Ac trans]
+25.9 +17.0 58 +30 +40 душно 1016.5 1008.3 +21.5
03 19.09 ЮВ 4 20 км 3/3 500 м
[Cu hum Ac trans]
+26.1 +17.9 61 +31 +34 очень
душно
1015.5 1007.3
06 19.09 ЮВ 3 20 км 6/6 500 м
[Cu Sc]
+23.6 +15.7 61 +27 +27 жарко 1016.0 1007.7
12 19.09 ЮВ 3 20 км {ливн. осадки} 8/8 500 м
[Cu Sc]
+22.6 +17.8 74 +28 +28 душно 1016.5 1008.2 +26.3 0.2
15 19.09 ЮВ 2 20 км 4/4 540 м
[Cu Sc]
+21.4 +17.5 78 +25 +25 комфорт 1015.3 1007.0
18 19.09 штиль 0 20 км 6/1 540 м
[Cu hum Ac trans]
+19.0 +18.2 95 +21 +21 комфорт 1016.2 1007.8
21 19.09 ЮВ 3 20 км 4/4 500 м
[Cu med, cong Ci fib]
+24.6 +17.6 65 +29 +35 душно 1016.7 1008.4
00 20.09 В 3 20 км 5/5 300 м
[Frnb Ci fib]
+24.3 +17.6 66 +28 +37 душно 1015.3 1007.1 +16.6 0.2
03 20.09 ЮВ 4 20 км 4/4 540 м
[Cu hum Ci fib]
+24.8 +16.6 60 +28 +32 жарко 1014.2 1006.0
06 20.09 штиль 0 20 км 4/4 540 м
[Cu hum Ci fib]
+23.1 +17.2 69 +28 +28 душно 1014.8 1006.5
12 20.09 штиль 0 20 км 1/1 360 м
[Cu hum]
+16.1 +15.6 97 +16 +16 1015.6 1007.1 +26.4
15 20.09 штиль 0 20 км 1/1 600 м
[Cu hum]
+16.2 +15.9 98 +16 +16 1014.6 1006.1

 

Местоположение метеостанции Аэропорт Вавау (Тонга): широта -18.58 долгота -173.96 высота над уровнем моря 71 м.

В архиве по умолчанию представлена погода в Аэропорту Вавау за последнюю неделю. Архивные данные за месяц целиком и за предыдущие месяцы, начиная с января 2011 года, Вы можете получить, выбрав интересующий диапазон дат из раскрывающегося списка и нажав кнопку "Ввод!".


*Определитесь, кто Вы:
робот инопланетянин человек

Внимание! Время в таблицах - всемирное. Для получения местного времени необходимо прибавить поправку, которая равна -11 ч.

Смотрите также архив погоды в соседних городах и на ближайших метеорологических станциях:

Погода на Острове Хаапай (Тонга) (139 км)
Погода в Аэропорту Матаахо (Тонга) (293 км)
Погода в Аэропорту Фуаамоту (Тонга) (321 км)
Погода на Острове Ниуафооу (Тонга) (378 км)
Погода в Ниуэ аэропорту (Кука Острова) (431 км)
Погода на Лакемба (Фиджи) (512 км)
Погода на Оно-и-Лау (Фиджи) (548 км)
Погода на Станции Togitogiga (Самоа) (557 км)
Погода на Острове Маноно (Самоа) (562 км)
Погода в Аэропорту Фалеоло (Самоа) (567 км)

Пояснения к столбцам:

Ветер - указаны скорость ветра в м/с - средняя за 10 мин, порывы в срок и между сроками (в фигурных скобках) и направление, откуда дует ветер: С - северный, СВ - северо-восточный, В - восточный, ЮВ - юго-восточный, Ю - южный, ЮЗ - юго-западный, З - западный, СЗ - северо-западный.
Видимость - горизонтальная дальность видимости в метрах или километрах. При видимости от 1 до 10 км при отсутствии осадков обычно наблюдается дымка, при ухудшении видимости до 1 км и менее - туман. В сухую погоду видимость может ухудшаться дымом, пылью или мглою.
Явления - указаны атмосферные явления, наблюдавшиеся в срок или в последний час перед сроком; фигурными скобками обозначены явления, наблюдавшиеся между сроками (за 1-3 часа до срока); квадратными скобками обозначены град или гололедные отложения с указанием их диаметра в мм.
Облачность - указаны через наклонную черту общая и нижняя облачность в баллах и высота нижней границы облаков в метрах; квадратными скобками обозначены формы облаков: Ci - перистые, Cs - перисто-слоистые, Cc - перисто-кучевые, Ac - высококучевые, As - высокослоистые, Sc - слоисто-кучевые, Ns - слоисто-дождевые, Cu - кучевые, Cb - кучево-дождевые. Подробнее классификацию облаков см. в Атласе облаков (PDF).
T - Температура воздуха - температура, измеренная на высоте 2 м над землей.
Td - Температура точки росы - температура, при понижении до которой содержащийся в воздухе водяной пар достигнет насыщения.
f - Относительная влажность воздуха - влажноcть воздуха, измеренная на высоте 2 м над землей.
Te - Эффективная температура - температура, которую ощущает одетый по сезону человек в тени. Характеристика душности погоды. При расчете учитывается влияние влажности воздуха и скорости ветра на теплоощущения человека.
Tes - Эффективная температура на солнце - температура, которую ощущает человек, с поправкой на солнечный нагрев. Характеристика знойности погоды. Зависит от высоты солнца над горизонтом, облачности и скорости ветра. Ночью, в пасмурную погоду, а также при ветре 12 м/с и более поправка равна нулю.
P - Атмосферное давление - приведенное к уровню моря атмосферное давление.
Po - Атмосферное давление - измеренное на уровне метеостанции атмосферное давление.
Tmin - Минимальная температура - минимум температуры воздуха на высоте 2 м над землей.
Tmax - Максимальная температура - максимум температуры воздуха на высоте 2 м над землей.
R - Количество осадков - Количество выпавших осадков за период времени, мм. При наведении курсора мыши на число - период времени, за который выпало указанное количество осадков.
R24 - Количество осадков - Количество выпавших осадков за 24 часа, мм.
S - Снежный покров - Высота снежного покрова, см. При наведении курсора мыши на число - состояние снежного покрова и степень покрытия местности в баллах.